Theta_e
299 299 299 298 298 298 298 298 298 298 299 299 299 299 299 299 299 299 299 299 299 300 301 302 302 302 302 301 301 301 301 302 303 304 304 302 303 305 307 308 305 304 300 299 301 301 303 306 307 308 306 304 303 306 310 312 314 317 325 330 330 330 328 329 328 323 326 324 319 320 320 320 319 318 317 317 316 313 313 312 312 314 314 313 313 316 319 324
299 298 298 298 298 298 298 298 298 299 299 299 299 299 299 299 299 299 299 299 299 299 301 302 302 302 301 302 301 301 301 303 304 304 303 302 303 305 307 308 306 303 299 299 301 302 305 307 308 308 306 305 304 306 309 312 313 318 325 327 327 329 322 320 322 321 322 319 315 315 316 316 316 316 316 313 310 311 311 311 312 312 312 313 315 318 321 326
299 298 298 298 298 298 298 298 299 299 299 299 299 299 299 299 299 299 299 299 299 299 300 302 302 302 302 302 302 301 302 303 304 303 302 302 303 304 305 306 304 302 300 301 302 302 306 308 309 308 306 306 306 307 309 311 313 314 322 329 327 324 319 316 318 319 318 316 313 311 312 311 312 314 315 312 309 308 307 307 309 308 308 309 311 316 321 325
298 298 298 298 299 298 298 299 299 299 299 299 299 299 299 299 299 299 299 299 299 299 300 301 302 302 302 303 302 301 302 302 303 302 302 302 303 303 303 303 302 301 301 302 303 303 305 307 309 308 307 308 307 308 308 311 313 313 321 330 323 318 319 317 316 317 315 314 312 310 310 308 309 312 312 313 312 308 305 305 305 305 305 305 306 311 319 325
298 298 298 299 299 299 299 299 299 299 299 299 299 299 299 299 299 299 299 299 299 300 300 301 302 302 303 303 302 302 302 301 302 302 302 303 303 303 303 303 302 301 301 302 303 304 304 307 309 309 308 308 308 308 309 309 312 314 316 319 318 316 317 314 314 314 313 312 311 309 309 308 308 308 306 308 308 306 305 304 303 303 303 303 303 308 319 324
298 298 298 299 299 299 299 299 299 299 299 299 299 299 299 299 299 299 299 299 300 300 301 302 302 303 303 303 302 302 302 301 302 303 303 303 303 303 303 303 302 302 302 302 304 304 304 306 309 310 308 308 308 308 309 307 310 315 314 313 315 316 313 312 312 312 311 311 309 308 308 307 307 305 303 303 303 303 303 302 302 302 302 302 303 308 318 322
298 298 298 298 298 299 298 298 299 299 299 299 299 299 299 299 299 299 300 300 300 301 301 302 302 302 303 303 303 303 302 302 303 303 303 304 304 304 303 303 303 302 302 302 304 304 305 308 310 309 307 308 308 308 308 307 310 315 314 311 312 312 311 310 310 309 310 309 308 308 307 306 305 304 303 303 302 302 302 301 301 301 301 302 303 306 311 317
298 298 298 298 298 299 298 299 299 299 299 299 299 299 299 300 300 300 300 301 301 301 302 302 302 302 303 303 303 303 303 303 303 303 304 304 304 304 303 303 303 303 303 302 303 305 306 308 310 308 309 310 308 307 307 308 311 313 311 308 308 309 308 308 308 308 308 307 307 307 306 304 304 304 303 303 302 301 301 301 300 301 301 301 302 302 305 313
297 298 298 298 298 298 298 298 298 299 299 299 299 300 300 300 300 301 301 301 301 301 302 302 302 303 303 303 303 303 303 302 303 302 303 304 304 304 303 303 303 303 303 303 303 304 305 308 310 309 310 309 308 308 307 308 311 310 309 308 308 308 307 308 307 307 307 306 308 306 304 304 305 305 303 301 302 301 300 300 300 300 300 300 299 300 305 309
297 297 297 297 297 298 298 298 298 299 299 299 300 300 300 300 301 301 301 302 302 301 302 302 302 303 303 303 302 303 303 302 302 302 303 304 305 305 303 303 303 303 304 303 303 304 305 308 310 309 310 309 308 309 307 309 310 308 308 308 307 307 307 307 306 307 306 306 307 305 303 303 305 305 303 301 301 300 300 300 300 299 299 299 298 300 304 305
297 297 297 297 297 297 298 298 298 299 299 299 299 300 300 300 301 301 301 302 302 302 302 302 303 303 303 303 302 303 303 302 302 302 303 304 305 305 304 304 304 303 303 303 303 304 305 308 309 309 309 309 309 309 308 309 309 308 308 307 307 307 307 307 307 307 306 306 307 306 304 303 303 304 302 301 301 300 299 299 299 299 299 298 298 300 301 301
297 297 297 297 297 297 297 298 298 299 299 299 300 300 300 300 301 301 301 302 302 302 302 302 303 303 303 303 302 303 302 302 302 303 303 304 306 305 303 303 304 304 304 304 304 304 304 306 309 309 309 310 309 309 309 309 308 308 308 308 308 309 309 308 309 308 308 309 308 309 310 304 302 302 301 302 301 300 300 299 298 299 299 298 298 298 298 300
297 297 297 297 297 297 297 298 298 299 299 299 300 300 300 300 300 301 301 302 302 302 302 302 303 303 303 303 303 302 302 302 302 303 304 305 306 305 304 304 304 304 304 304 305 304 304 305 308 309 309 310 309 309 309 309 309 310 310 310 311 311 310 308 309 309 308 309 308 311 315 305 301 302 301 301 301 300 300 299 298 298 298 298 298 297 298 300
297 297 297 297 297 298 298 298 298 298 299 299 299 300 300 300 301 301 302 302 302 302 303 303 303 304 303 303 303 302 302 302 302 304 305 305 306 306 305 305 304 304 304 304 305 305 304 306 308 309 309 310 310 310 309 309 310 311 312 313 313 314 311 307 307 308 308 308 307 310 311 303 301 301 300 301 301 300 299 299 298 298 298 298 297 297 299 300
297 297 297 297 298 298 298 298 298 298 299 299 299 300 300 300 300 301 302 302 302 302 302 303 303 304 303 302 303 302 302 302 303 304 305 305 306 306 306 306 305 304 303 303 304 305 305 307 308 309 309 310 310 310 310 311 311 312 315 316 315 314 311 307 306 306 308 307 306 310 307 302 301 301 300 300 300 299 299 298 298 298 299 299 298 298 298 299
297 297 297 297 298 298 298 298 298 298 299 299 299 300 300 300 300 300 302 302 302 302 302 302 302 303 303 302 302 302 302 302 301 302 305 306 305 306 306 306 306 305 304 303 304 305 306 308 308 308 309 310 311 312 311 312 312 313 316 316 314 314 312 309 306 305 306 305 306 308 306 302 301 301 301 300 299 299 298 298 298 298 298 299 299 299 300 300
297 297 297 297 298 298 298 298 299 298 299 299 299 299 300 300 299 300 301 301 302 302 301 302 302 302 303 301 302 302 301 301 301 302 304 306 305 305 306 305 306 305 304 304 305 306 307 308 308 307 307 308 310 311 313 314 314 316 316 314 313 313 312 310 306 304 304 304 304 304 303 301 301 301 300 300 299 298 298 298 297 297 297 297 298 299 301 301
297 297 297 298 298 298 298 298 299 299 299 299 299 300 300 301 300 300 300 301 301 301 301 301 301 304 303 301 300 300 301 301 300 301 304 305 305 305 305 306 306 305 304 305 305 306 307 306 307 309 309 309 309 311 315 315 315 315 314 313 311 311 309 307 306 304 303 303 303 302 302 301 300 300 300 299 298 298 297 297 297 296 296 296 296 297 298 299
297 297 298 298 298 298 298 298 299 299 299 299 299 300 300 301 301 299 299 300 300 300 300 299 300 302 301 300 299 300 301 301 300 301 303 305 304 304 306 306 305 305 305 306 306 306 305 305 307 311 311 309 307 308 311 314 315 314 312 312 311 309 307 305 304 303 302 302 302 302 301 301 300 300 299 298 297 297 296 296 296 296 295 295 295 295 295 297
297 297 298 298 298 298 298 298 299 299 299 299 299 300 300 300 302 301 299 298 298 298 299 298 298 299 299 299 299 300 301 300 300 302 303 304 305 304 305 305 305 305 306 306 306 304 304 307 308 308 308 306 305 305 307 310 312 310 310 310 308 307 306 305 304 303 303 303 301 301 301 300 300 300 298 298 297 296 296 296 295 295 295 294 294 294 294 294
297 297 298 298 298 298 298 299 299 299 300 300 300 300 300 300 301 303 301 298 297 298 298 298 298 298 298 298 299 300 300 300 301 302 303 303 304 304 304 305 305 305 303 303 304 305 306 308 306 304 305 304 304 304 306 309 310 308 308 307 306 306 305 304 304 304 303 303 301 301 300 300 299 299 297 297 297 296 296 295 295 295 295 294 294 293 293 293
297 298 298 298 298 299 299 298 299 300 300 300 300 300 300 300 301 302 302 299 297 298 298 298 299 298 299 298 299 300 300 299 300 301 302 303 303 304 302 303 305 304 303 303 305 307 308 308 305 302 301 302 304 306 308 309 309 308 308 307 306 306 305 304 303 303 303 303 302 300 300 299 299 298 297 297 296 295 295 295 294 294 294 294 294 293 293 293
298 298 298 298 298 299 300 299 299 299 300 300 300 300 300 301 301 302 302 300 298 297 298 298 299 298 299 298 298 300 300 298 299 299 301 302 302 302 301 302 304 304 304 305 306 307 308 306 303 300 300 303 307 308 309 309 308 309 308 307 306 306 306 305 303 302 303 302 301 300 300 299 298 298 297 297 297 295 294 294 294 294 294 294 293 293 294 293
298 298 298 299 299 300 301 299 299 299 299 300 300 301 301 301 302 301 299 298 297 297 297 298 298 298 298 298 298 300 300 298 298 298 300 301 302 302 301 301 303 303 303 304 304 305 305 303 301 302 304 307 307 307 309 309 308 308 308 307 307 306 306 304 302 302 303 302 302 303 305 303 300 299 298 297 297 296 295 294 293 293 293 293 293 293 293 293
298 298 298 299 299 300 301 300 300 300 299 300 300 301 301 301 302 300 299 301 299 297 298 298 298 298 297 297 298 299 300 299 298 298 300 300 301 302 301 301 303 304 303 303 304 304 304 302 302 305 307 307 306 306 308 308 308 307 307 307 306 305 304 303 304 305 306 306 305 305 310 309 302 300 299 298 297 297 297 296 294 293 292 292 293 292 292 292
298 298 299 299 300 300 300 300 300 300 299 300 300 301 302 301 303 301 302 305 301 296 298 298 298 299 297 297 298 299 302 301 299 299 300 301 301 302 302 301 302 303 303 303 304 304 303 302 304 307 307 307 307 307 308 308 308 307 306 305 305 304 304 305 307 308 309 309 306 305 310 311 304 301 300 298 298 298 297 297 296 294 293 292 292 292 292 292
298 299 299 299 300 299 300 300 300 300 300 299 300 302 302 301 302 301 302 304 300 296 297 298 298 298 297 297 297 300 302 300 299 300 300 300 301 301 302 301 301 302 301 302 304 303 302 303 305 306 305 306 306 307 308 308 307 307 305 304 304 305 306 307 308 308 307 307 306 303 306 311 309 305 301 299 299 299 298 298 297 296 294 292 292 292 292 292
298 299 299 299 299 299 300 300 300 300 300 300 300 301 302 303 301 302 305 301 297 296 297 297 298 298 297 297 296 298 298 297 299 300 299 300 301 301 301 301 301 303 302 303 304 302 301 302 303 305 305 305 305 304 305 305 306 305 304 304 304 304 306 306 307 306 306 308 310 304 303 312 313 305 301 300 299 299 300 299 298 297 295 293 292 292 292 292
298 299 299 299 299 300 300 300 300 300 300 300 300 300 302 302 300 303 306 300 295 297 297 297 298 298 296 297 296 296 295 296 296 298 299 300 301 300 300 300 300 302 302 302 303 302 301 300 300 303 304 304 304 304 305 306 305 304 304 305 304 304 306 306 306 308 311 313 310 303 302 311 314 306 301 301 300 300 300 299 298 297 296 294 293 292 292 293
299 299 299 299 300 300 300 300 300 300 301 301 300 301 301 301 303 305 302 297 296 297 296 297 298 297 295 296 297 296 295 295 295 296 299 299 300 300 299 300 301 303 303 302 302 301 300 299 299 301 303 303 303 303 305 305 304 304 306 306 306 307 308 309 307 309 315 315 307 302 301 306 313 310 302 301 302 302 301 300 298 297 297 295 294 293 293 294
299 299 299 300 300 300 300 300 300 300 301 300 300 301 300 301 306 305 299 296 297 298 297 298 297 296 295 294 296 296 295 295 294 295 298 298 298 297 297 300 301 303 305 303 304 303 300 300 300 299 301 302 304 304 303 304 304 305 308 307 307 310 310 312 312 312 318 315 306 302 301 303 312 314 306 302 303 302 300 301 300 298 297 296 295 295 295 295
299 299 299 300 300 300 300 300 300 299 300 301 300 300 302 303 303 299 298 297 296 297 297 297 297 296 295 294 295 295 296 296 294 294 295 296 296 295 296 297 296 303 306 304 306 306 303 301 300 300 300 300 304 306 304 305 306 306 308 309 310 311 311 314 313 310 312 309 303 302 302 303 308 311 307 303 303 301 299 299 299 298 298 297 296 296 296 296
300 299 299 300 300 301 300 300 301 300 301 301 299 301 305 305 300 296 299 299 295 295 295 297 297 296 296 296 295 295 296 295 294 295 295 295 296 295 296 294 294 300 304 302 304 307 306 303 300 301 301 299 301 306 306 306 307 308 309 311 313 313 314 313 308 305 307 306 301 300 302 306 308 305 305 304 301 301 301 300 300 298 298 298 297 297 297 296
300 300 300 300 300 301 301 301 301 301 301 300 301 307 306 302 298 297 300 301 296 293 294 297 296 295 296 296 295 295 297 296 294 294 295 295 297 296 296 295 294 297 300 301 302 302 305 305 300 300 300 298 299 301 303 305 307 307 306 309 313 314 315 314 311 311 311 307 302 301 303 308 309 304 301 301 298 299 301 300 300 299 298 298 298 297 297 297
301 301 300 300 301 301 301 302 302 301 301 300 302 306 304 300 299 299 300 300 296 295 296 295 294 297 298 296 295 295 296 297 295 295 296 294 296 296 295 296 294 294 299 302 301 299 301 300 298 298 297 297 298 297 297 303 306 304 304 309 310 307 308 307 305 305 307 307 306 304 304 304 303 302 298 297 297 298 299 300 300 300 300 299 299 298 297 297
301 301 301 300 301 301 301 302 302 302 303 302 302 302 300 298 297 297 297 297 297 295 296 296 295 299 300 298 298 295 295 296 296 298 298 294 295 296 294 296 294 292 296 300 300 301 302 299 298 299 297 295 297 297 295 299 304 304 306 308 303 299 303 306 302 298 300 307 306 302 306 305 302 301 299 297 300 300 299 300 300 301 301 300 300 300 300 299
302 301 301 301 301 301 301 302 302 302 302 302 302 301 296 295 296 295 295 296 296 294 296 299 297 297 300 301 300 295 296 298 296 298 299 295 296 296 294 295 294 292 293 295 298 299 301 301 297 298 299 296 295 296 296 295 300 308 309 303 299 298 301 307 310 305 303 307 307 302 306 308 305 304 302 299 302 303 301 299 299 300 301 301 301 302 302 301
302 302 301 302 301 301 301 301 302 302 302 302 301 299 294 294 295 294 295 295 295 295 297 299 297 296 298 300 299 295 296 298 297 298 300 298 297 295 294 296 294 293 291 293 298 297 298 305 299 295 299 298 295 299 303 299 297 302 304 299 300 303 304 305 307 307 306 305 306 304 303 303 304 306 306 304 304 304 303 300 299 299 300 301 302 302 302 302
302 302 302 301 301 301 301 302 302 302 302 302 301 298 294 295 295 294 296 295 294 296 298 297 296 296 297 297 297 296 296 296 296 298 300 299 296 294 295 295 294 294 292 293 298 296 297 306 303 297 298 298 299 302 305 303 299 299 301 300 301 303 303 303 302 304 307 306 302 303 307 308 305 305 308 308 306 303 302 302 300 299 300 302 302 302 302 301
303 302 302 301 302 301 300 301 302 304 303 299 298 296 293 295 297 294 296 295 294 296 297 296 296 297 297 296 296 296 295 296 295 297 298 296 295 295 294 294 293 293 292 293 295 295 298 306 305 299 299 299 301 300 298 300 301 302 305 304 303 300 297 299 298 297 302 307 305 301 305 311 305 301 304 305 303 299 299 300 299 298 300 302 301 301 301 301
303 303 302 301 302 302 301 303 300 297 298 296 295 295 293 295 296 294 296 296 294 295 295 296 297 297 297 297 296 295 296 297 296 297 297 295 295 295 294 294 292 292 294 297 297 295 298 305 306 302 301 301 300 297 294 297 298 298 301 301 302 300 300 304 300 293 295 303 304 300 303 312 305 298 300 301 298 297 297 298 298 298 300 301 301 302 301 301
303 304 303 301 303 302 302 303 292 290 297 298 295 295 296 296 295 294 295 296 295 294 294 295 296 296 296 297 296 295 296 297 296 297 297 295 296 296 295 294 292 291 295 298 298 294 294 302 306 302 299 298 295 292 291 293 294 296 296 296 297 298 303 312 304 297 297 296 295 296 301 310 303 294 296 297 295 296 297 297 298 299 301 301 301 302 301 301
302 302 302 302 302 302 303 303 295 293 296 295 292 294 296 296 295 295 296 295 296 296 295 296 295 295 295 295 295 295 295 295 295 295 296 295 295 296 294 294 292 292 294 296 297 294 293 299 304 303 302 300 295 291 289 290 293 297 296 295 296 296 299 304 301 300 303 299 298 300 301 308 304 292 293 296 296 298 298 298 298 299 301 301 301 301 301 301
301 301 302 302 302 303 306 307 305 300 296 294 294 294 295 295 295 297 297 295 296 296 297 297 295 294 294 293 295 295 294 295 295 294 295 295 294 294 294 294 292 292 295 296 296 296 295 296 301 307 307 304 302 299 296 294 295 298 297 294 296 295 295 297 295 299 305 300 299 303 304 310 304 293 293 295 295 298 299 299 299 299 300 301 301 301 301 301
302 302 301 301 302 303 303 302 303 302 299 298 298 297 297 296 295 296 297 295 294 294 295 295 294 295 294 293 296 296 294 295 295 294 296 296 295 293 293 294 292 292 296 295 294 297 297 293 297 307 307 302 304 303 299 297 295 295 295 295 296 296 296 297 297 302 304 296 295 302 306 308 302 296 298 297 296 300 300 299 300 299 300 301 301 301 301 301
303 304 302 301 302 300 298 295 296 301 301 302 301 297 297 298 296 294 295 295 295 294 293 293 292 294 295 296 299 298 295 294 295 296 298 298 297 294 293 294 292 291 295 295 292 293 295 292 293 303 309 306 306 303 296 296 297 295 295 296 297 295 293 295 298 302 302 297 299 304 302 301 302 300 301 301 301 301 298 297 299 299 299 299 299 300 301 301
303 304 301 301 301 299 298 296 295 297 299 301 300 296 297 300 296 295 295 294 295 295 293 292 291 293 296 298 300 299 296 295 296 296 296 296 296 293 292 293 292 292 294 294 292 294 301 301 292 295 303 300 297 296 293 294 298 297 296 296 298 297 293 293 297 298 296 297 305 304 295 297 302 301 300 300 300 297 294 295 296 296 297 297 298 298 298 299
303 301 298 300 302 300 299 298 296 295 295 298 298 296 299 302 298 297 297 294 294 294 294 294 293 294 296 295 297 298 297 297 297 296 297 297 295 295 295 293 291 292 293 292 292 295 304 304 292 292 302 295 289 291 291 294 296 295 296 297 297 298 297 296 299 297 294 298 304 301 294 296 299 297 296 296 295 294 294 294 295 296 297 297 297 297 297 297
301 301 298 299 300 298 297 297 296 295 295 298 299 298 302 305 301 297 295 294 295 294 294 294 293 295 295 293 296 298 296 297 297 296 297 297 295 296 299 297 293 292 291 292 292 291 298 301 292 290 299 295 289 289 290 292 296 296 297 297 296 297 297 297 299 297 295 297 299 296 294 295 295 294 295 295 294 294 295 296 297 297 297 298 297 297 297 297
302 302 299 299 297 295 296 296 296 299 299 299 301 298 299 304 303 298 294 295 296 295 294 294 294 294 293 293 297 297 293 295 295 293 294 295 295 295 296 296 295 293 292 293 293 292 296 298 288 286 299 298 291 291 291 292 296 297 297 295 293 295 296 295 296 296 295 297 297 295 295 296 295 294 295 295 295 295 296 297 297 297 297 297 297 297 297 297
302 302 300 301 299 296 296 295 295 302 303 301 302 299 298 303 301 297 296 294 295 296 294 293 295 295 293 294 297 295 292 293 293 292 293 293 293 293 292 292 292 293 294 294 294 295 298 297 289 290 304 303 293 292 295 292 293 296 299 298 294 293 295 295 294 294 296 298 298 296 299 302 299 294 295 296 296 295 296 297 297 297 297 297 297 297 297 297
302 301 300 302 301 296 296 295 294 300 301 298 298 297 298 300 296 295 298 296 293 295 294 292 294 296 296 297 296 293 293 293 292 291 292 291 291 291 291 291 290 292 294 292 292 291 292 298 297 295 305 307 296 292 294 295 299 301 300 301 298 295 295 295 294 294 294 297 300 300 303 303 297 293 296 297 295 295 296 296 297 297 297 297 297 297 297 297
Wind_Speed
13 13 14 14 14 15 16 16 17 18 19 19 19 19 19 19 18 18 17 16 14 11 9 8 8 9 11 13 15 13 10 9 9 9 10 12 13 11 11 12 13 14 13 10 9 6 2 2 2 2 1 3 5 9 10 8 9 7 3 4 4 4 4 3 5 6 9 7 4 11 12 15 13 13 20 24 28 28 30 29 26 26 26 22 19 21 23 21
12 13 13 13 14 14 15 17 18 19 20 20 20 20 20 20 20 19 19 18 16 13 9 7 6 8 12 15 17 15 9 8 8 7 8 11 11 10 10 11 12 13 11 9 7 4 1 1 3 3 2 5 5 8 9 7 8 4 2 4 4 5 1 2 6 8 11 13 13 18 16 18 13 9 18 17 17 24 24 22 24 26 23 23 24 25 26 21
10 11 11 12 13 14 15 16 17 18 19 19 19 19 19 19 19 20 20 19 18 16 11 7 5 8 12 15 18 14 9 8 6 6 10 11 12 12 11 10 10 11 9 9 7 3 1 2 4 4 5 6 5 7 8 6 6 2 3 4 3 6 4 8 10 14 19 26 23 18 23 27 19 14 18 17 16 23 18 15 19 20 19 22 25 26 27 22
7 8 9 10 11 13 13 15 16 17 18 18 18 18 19 19 19 20 21 20 19 19 14 7 5 9 11 15 18 14 10 6 4 9 13 13 14 14 13 11 9 8 7 7 6 3 1 2 3 4 6 4 4 6 6 5 6 2 3 4 3 6 6 10 17 24 24 31 28 21 27 27 24 24 19 16 15 14 14 16 14 13 15 18 23 27 27 22
5 6 7 8 9 11 12 13 14 16 17 17 18 19 19 19 21 21 20 20 18 19 16 5 5 9 11 15 16 14 9 3 5 13 15 14 15 14 13 11 8 7 6 6 5 4 1 1 3 4 5 3 4 5 3 4 6 4 2 3 7 10 9 10 21 27 25 30 29 23 22 18 24 31 27 24 16 8 12 15 13 13 14 17 22 27 26 24
4 4 4 5 7 8 10 12 14 16 16 17 18 19 20 21 22 20 18 18 17 19 14 3 5 9 11 14 12 12 9 2 9 16 16 16 14 13 12 11 7 6 6 5 5 4 0 2 3 3 3 2 2 3 5 3 4 4 3 5 9 17 15 12 21 23 26 31 24 20 21 24 29 25 27 33 21 12 13 13 16 17 19 22 25 28 27 25
4 4 4 4 6 7 9 12 15 15 15 16 17 18 20 21 20 18 17 16 16 18 9 3 6 9 11 13 10 11 11 7 12 16 15 15 13 12 11 9 7 5 5 4 3 2 2 3 4 4 3 3 1 2 5 4 7 7 4 8 13 25 24 19 25 27 34 35 28 31 30 27 27 19 24 31 23 17 16 16 20 21 23 26 28 30 29 27
6 6 6 6 7 9 11 13 14 14 14 15 17 18 19 18 16 15 16 15 17 14 5 4 7 10 12 13 11 9 12 12 13 14 15 13 10 10 9 7 6 5 4 4 2 1 3 4 6 6 2 2 1 2 4 6 10 7 6 11 17 27 29 29 33 36 41 37 36 41 31 25 27 28 28 25 18 17 16 17 21 22 25 28 29 30 30 29
7 8 8 9 10 11 12 12 13 12 12 14 16 18 17 15 12 14 15 15 16 8 5 8 8 10 11 13 13 7 10 13 12 13 14 11 7 8 8 5 6 6 4 4 1 2 4 5 7 5 2 3 2 2 4 3 5 7 13 18 21 24 26 31 31 33 35 30 38 38 22 19 20 22 25 19 15 15 15 18 19 22 26 28 27 28 31 30
9 10 10 11 11 12 12 12 11 10 11 14 16 17 16 12 9 14 17 15 14 4 6 10 8 9 10 11 12 7 10 14 11 12 12 9 6 6 6 4 5 5 4 3 1 3 4 5 6 8 6 4 3 3 3 4 12 20 26 27 26 24 22 27 28 31 31 25 37 36 18 21 18 14 13 14 15 15 16 20 20 25 27 26 26 29 31 29
10 11 11 12 12 12 12 11 9 8 9 13 17 18 17 13 9 12 17 14 10 4 4 6 7 9 9 9 8 7 13 15 14 14 11 7 4 4 3 1 1 2 2 1 1 3 4 4 7 9 4 2 4 7 9 18 28 31 34 27 23 25 21 20 19 21 22 18 33 38 22 25 24 15 9 9 15 16 19 21 21 26 27 26 27 29 29 28
11 11 12 12 12 11 11 10 8 6 7 13 20 21 20 17 10 10 15 11 7 5 2 3 5 8 9 7 6 10 16 16 17 16 9 4 4 4 3 2 1 1 2 1 1 4 5 5 6 5 3 5 5 7 12 27 32 31 34 22 12 18 14 11 8 6 11 14 18 24 18 18 16 12 9 8 11 15 21 21 22 26 26 26 26 27 28 28
12 12 12 13 12 12 11 9 6 3 4 12 21 25 24 22 14 10 14 10 3 3 4 3 4 6 9 7 7 14 16 16 20 16 5 1 4 5 5 3 1 3 3 2 1 2 5 6 5 4 6 6 2 6 17 27 27 22 23 16 9 11 7 11 7 3 6 4 3 4 7 7 8 11 12 8 8 13 17 19 22 23 23 24 23 25 27 27
12 13 13 13 13 12 11 9 5 1 2 7 15 24 27 25 19 10 13 15 8 2 2 5 4 4 8 6 6 15 17 17 20 16 5 1 3 6 6 5 3 3 3 4 1 2 5 6 4 4 7 5 5 14 18 16 15 12 12 10 7 8 4 7 10 5 5 4 1 7 7 2 4 9 10 8 7 10 12 16 20 20 21 22 21 24 25 24
13 13 13 13 13 12 11 9 6 3 4 1 6 15 24 27 24 13 7 12 16 10 1 1 4 4 6 8 6 14 19 18 21 18 9 1 3 5 7 7 5 3 5 5 2 2 5 7 5 3 4 5 8 15 10 5 6 6 8 7 5 6 4 4 13 10 3 5 9 13 7 3 6 8 9 9 9 10 11 13 17 19 20 20 20 21 22 21
14 14 14 14 13 12 11 9 7 3 6 3 3 7 17 24 28 21 7 5 11 17 10 2 2 2 4 9 9 15 22 22 24 20 10 4 1 2 5 5 5 5 6 6 4 5 7 6 5 5 5 5 5 8 7 5 3 2 4 6 6 9 5 2 11 14 2 2 10 10 10 5 5 7 7 7 8 10 12 13 15 17 18 18 17 17 18 18
14 15 15 14 14 12 11 10 6 3 7 5 5 5 10 16 25 27 16 5 2 12 21 12 2 2 4 14 15 18 23 22 25 22 10 8 6 3 3 3 3 6 8 9 7 7 6 4 4 4 4 4 2 4 7 7 6 3 4 5 5 8 6 4 6 13 11 10 11 14 14 8 7 9 8 7 7 9 11 12 12 13 14 15 15 14 15 15
15 15 15 14 13 12 11 9 6 2 6 5 4 5 6 8 16 27 26 18 12 10 17 22 13 3 3 19 21 20 20 19 25 25 12 8 10 7 4 3 3 9 12 10 7 5 4 3 3 3 3 4 2 2 7 7 8 9 8 8 7 8 7 6 5 6 16 17 13 15 14 11 8 8 9 9 9 11 12 12 10 11 13 14 13 13 12 13
16 16 15 14 12 11 11 9 5 2 4 5 3 4 5 3 7 21 31 31 27 15 6 16 17 4 5 19 24 21 16 19 26 25 13 7 10 11 7 5 7 10 9 6 3 3 4 4 4 3 2 2 2 1 3 2 6 10 10 10 10 9 7 8 8 9 19 19 12 11 12 10 8 6 7 9 9 11 12 11 11 10 11 12 12 10 10 11
17 17 16 15 11 9 10 9 5 2 3 5 4 3 4 4 3 10 24 32 29 19 10 16 16 9 11 19 25 24 16 21 28 24 16 8 6 10 9 7 7 6 4 3 2 2 4 5 3 1 2 3 1 2 3 1 11 13 12 11 11 12 8 8 9 5 10 14 9 9 11 10 7 5 7 10 9 10 10 9 9 9 9 9 8 7 8 9
18 18 17 16 12 8 8 8 6 2 2 3 3 2 1 4 3 4 12 20 24 22 19 21 21 20 22 20 23 25 18 22 30 25 18 10 5 6 6 4 4 5 3 2 3 2 4 5 1 3 5 5 3 3 2 8 17 14 12 12 10 10 8 6 6 1 4 11 7 6 10 10 7 5 7 10 9 8 8 6 6 6 6 6 6 6 6 8
18 18 17 17 13 7 6 6 5 3 1 2 2 4 4 6 6 4 4 6 17 25 22 24 28 29 28 23 20 22 19 20 27 28 21 15 13 8 5 5 5 3 2 3 3 3 4 2 4 5 5 3 1 1 7 16 18 13 10 11 9 8 9 7 7 5 6 10 7 5 9 7 5 4 6 8 6 5 6 5 4 3 3 4 4 5 6 8
17 18 17 18 14 8 6 5 4 4 1 2 2 4 6 5 4 3 1 1 9 22 26 25 27 32 33 26 20 19 20 16 18 27 25 17 15 12 7 7 6 4 4 4 4 4 3 2 9 6 3 6 6 5 12 16 11 9 9 10 8 5 6 5 5 7 9 9 9 9 9 5 3 3 4 4 4 4 5 4 3 2 1 2 3 5 6 8
16 17 16 16 15 10 7 6 5 4 3 2 4 4 5 5 5 4 1 1 1 16 27 23 22 30 31 26 22 15 13 16 18 25 28 20 12 9 6 5 6 7 5 5 9 8 4 6 8 1 7 11 12 8 13 13 6 5 7 10 10 7 8 8 7 11 14 10 7 7 6 3 1 2 2 1 1 1 2 2 2 1 1 2 3 5 6 7
16 17 16 16 15 13 8 7 7 5 3 0 3 3 3 4 5 6 1 2 1 14 25 22 19 26 30 27 21 8 5 17 23 25 27 22 13 5 4 6 5 5 3 4 10 9 6 10 6 7 10 12 12 7 6 9 8 5 3 6 14 14 15 16 14 11 9 5 1 1 3 1 1 1 2 2 1 1 1 2 2 2 2 2 4 5 6 6
16 16 17 16 15 15 11 8 10 8 4 2 1 3 3 1 2 6 2 5 3 10 18 19 16 19 28 30 23 7 3 12 22 26 27 23 16 6 3 5 3 2 0 2 6 4 6 13 9 8 10 9 9 6 5 4 11 5 3 5 17 19 17 16 12 8 5 4 2 1 1 1 1 3 4 3 3 3 3 4 5 5 5 5 6 6 5 6
16 16 17 17 16 16 14 10 11 9 7 6 3 1 3 1 2 3 1 5 6 7 11 15 13 15 23 28 26 10 2 11 16 23 29 22 19 16 10 5 4 4 2 4 5 2 5 12 11 8 10 8 6 4 5 3 8 4 2 8 14 16 15 11 8 6 5 5 4 3 3 1 1 2 2 3 3 4 4 5 8 8 8 8 8 7 6 6
16 16 16 18 17 16 15 13 10 6 6 8 8 7 2 1 1 1 3 5 6 7 7 11 12 17 24 25 27 15 4 12 9 14 28 24 18 21 16 8 9 12 7 5 6 3 3 9 9 7 10 7 4 2 1 7 10 6 8 10 7 8 9 7 7 7 5 5 3 4 5 1 1 2 1 2 2 6 6 6 8 12 12 11 10 8 7 7
16 17 19 19 17 16 15 14 12 7 4 3 4 7 7 3 2 2 6 4 4 6 7 12 11 19 28 23 24 21 14 15 8 11 27 26 17 16 12 8 14 17 16 16 10 1 3 7 7 6 8 5 4 4 4 10 11 9 11 9 5 7 8 6 5 4 4 5 2 3 4 2 2 2 1 1 4 8 8 6 10 14 14 13 11 9 9 8
17 18 20 21 18 18 17 14 12 9 6 5 4 5 8 7 1 4 7 1 2 6 9 10 9 17 26 16 14 21 15 13 16 18 26 27 26 25 13 10 15 12 13 18 12 4 6 9 8 8 6 3 8 13 12 13 15 14 12 8 6 6 5 4 3 3 4 2 1 2 3 1 1 3 4 5 4 6 7 4 8 15 16 16 14 12 10 9
16 18 19 21 20 19 20 16 13 10 8 8 3 3 5 6 4 7 4 3 2 7 9 7 7 14 17 6 6 15 10 11 20 19 18 19 25 30 19 10 11 8 9 11 7 6 10 11 6 6 11 10 13 15 12 12 13 10 5 4 6 4 3 3 4 3 4 2 4 2 3 0 1 4 4 7 6 4 7 7 7 14 19 18 16 14 12 10
16 18 18 20 20 20 21 18 16 12 8 8 6 3 2 3 5 3 1 5 3 4 5 3 5 8 9 4 5 10 6 7 15 12 8 7 9 15 13 7 5 4 7 4 2 6 10 11 7 4 14 16 9 7 4 4 6 5 3 3 4 3 2 2 3 2 1 3 3 3 4 1 3 5 4 7 9 7 9 12 14 18 20 19 17 15 13 11
15 18 18 20 19 19 21 19 18 14 6 6 8 6 5 6 4 1 3 4 2 2 4 4 6 7 7 6 6 8 5 4 10 9 5 3 4 6 8 11 8 2 3 2 1 5 6 9 13 7 8 15 7 4 3 1 2 2 3 3 3 3 3 1 1 2 1 3 2 4 3 1 3 4 3 5 9 12 14 14 18 20 20 19 17 15 13 12
13 16 17 18 18 18 20 19 20 18 7 5 7 6 9 6 1 2 2 3 2 3 4 4 7 8 5 4 4 7 4 3 7 8 6 6 7 6 7 12 13 5 2 2 2 4 4 4 10 6 4 10 7 3 2 2 3 1 1 4 4 3 4 3 2 2 2 2 2 4 2 1 2 2 4 5 7 11 14 13 15 17 18 18 17 15 15 15
11 14 15 16 17 17 19 18 20 18 11 14 12 7 7 3 3 1 1 4 2 3 5 4 4 5 5 4 3 5 4 3 6 7 7 7 6 5 6 7 11 8 2 3 2 2 4 2 4 3 3 5 4 3 2 2 2 1 0 3 2 1 4 3 3 4 3 0 1 1 2 3 3 4 4 4 3 6 10 12 13 14 16 17 18 18 18 17
9 12 14 15 16 15 16 18 18 12 15 23 15 5 3 1 3 1 0 2 1 3 6 5 4 4 6 5 4 8 7 5 6 6 4 4 4 6 5 4 7 9 3 2 1 0 3 2 4 4 2 3 5 3 3 3 1 1 3 2 1 2 6 6 2 1 3 2 0 1 3 4 3 3 5 3 1 3 5 9 13 15 16 17 20 22 21 21
6 10 14 14 16 15 11 16 17 11 20 26 11 1 2 2 2 2 3 4 3 3 3 3 3 3 4 4 5 10 10 5 6 6 4 4 4 7 7 4 3 7 3 1 1 0 3 2 3 4 2 4 8 4 4 8 4 2 3 3 2 3 5 5 2 3 4 1 2 2 2 4 2 2 4 3 3 6 6 8 13 16 18 21 24 25 23 23
4 8 14 15 16 15 10 9 4 5 20 22 7 2 2 2 1 3 4 5 3 2 4 2 2 2 1 2 3 7 8 6 5 5 3 4 3 4 7 4 3 9 9 4 1 1 3 3 3 2 1 5 9 4 3 10 10 6 5 4 2 3 2 3 3 2 2 1 3 4 3 3 3 3 3 3 7 9 8 7 10 16 21 25 28 27 25 24
4 5 12 15 12 14 16 9 3 9 17 11 2 1 2 2 3 4 4 3 2 1 4 2 2 2 2 1 1 5 5 4 4 2 3 3 2 5 8 4 6 13 15 6 2 2 1 5 1 4 1 3 5 6 2 6 8 6 5 3 2 3 2 2 3 2 2 2 1 3 3 3 5 4 4 7 9 9 8 7 9 18 25 28 29 28 26 25
4 3 10 14 9 9 10 7 11 19 14 3 2 2 1 1 2 3 3 3 1 2 2 1 2 2 2 1 0 2 3 3 3 2 2 2 1 3 7 6 5 12 14 6 3 1 2 4 1 5 4 2 2 4 1 1 3 3 4 4 2 2 1 2 3 2 3 3 2 1 3 4 5 3 4 6 6 5 7 8 11 20 25 28 29 28 26 25
3 2 7 12 9 5 4 6 13 14 5 1 2 1 1 0 2 3 4 2 2 4 2 2 2 2 1 2 1 1 2 3 3 2 2 3 3 2 5 9 9 9 9 6 4 3 2 3 3 2 5 3 0 2 1 3 2 1 2 1 1 1 2 4 3 2 2 3 3 2 1 6 5 2 4 6 5 7 8 10 14 20 24 26 28 28 27 26
5 3 7 10 7 4 6 9 9 6 3 3 2 1 0 0 1 3 4 2 1 3 3 3 2 2 1 1 1 1 1 3 3 3 2 2 2 0 5 14 14 6 2 2 2 3 1 3 4 2 1 1 2 2 1 1 1 2 1 1 2 2 4 5 1 2 1 2 1 2 0 6 5 3 5 6 7 8 8 11 16 20 22 23 25 26 26 26
9 6 7 8 4 5 8 7 5 4 4 2 1 2 1 0 1 3 3 3 2 1 3 2 0 2 1 1 0 2 3 3 2 2 1 2 2 2 6 15 14 5 2 1 2 3 2 4 4 2 4 3 4 3 2 2 2 3 2 2 2 2 2 4 4 2 3 1 1 3 1 6 5 3 5 6 6 7 7 9 14 17 18 19 21 22 23 24
11 11 11 9 2 2 5 4 2 2 2 1 2 3 2 1 3 3 2 3 3 1 2 1 1 1 1 0 2 1 1 2 2 2 1 1 2 3 8 14 13 7 4 1 3 5 3 2 3 3 4 6 6 5 5 5 2 2 1 2 2 3 4 3 2 3 3 3 3 3 2 6 4 3 5 5 5 7 8 7 10 15 16 17 18 19 20 21
5 7 12 13 6 5 6 6 7 5 2 2 3 2 2 3 4 4 3 3 4 3 2 1 1 1 1 1 2 2 2 2 2 2 2 1 2 4 8 11 13 11 5 2 4 3 2 2 2 5 4 1 1 2 3 3 2 1 1 2 2 3 3 1 1 4 1 2 3 4 4 6 7 5 5 5 5 7 9 7 8 12 15 16 17 18 18 20
3 2 5 10 12 14 14 10 10 8 4 4 3 1 1 2 1 2 3 3 4 4 3 2 1 1 2 3 3 3 4 3 2 2 2 3 3 3 7 7 11 13 5 3 6 3 5 3 2 6 6 5 5 6 4 1 1 1 2 1 0 1 3 3 3 1 2 3 2 5 5 5 11 7 5 6 5 5 9 12 13 15 17 19 20 20 20 21
3 1 1 3 8 13 14 10 8 8 5 4 2 0 1 1 1 1 2 2 2 3 3 4 3 2 2 3 3 3 4 4 4 3 1 3 3 4 5 3 10 14 5 2 6 4 5 4 2 4 4 5 5 5 2 1 2 4 3 2 2 2 4 4 1 3 4 3 3 7 4 2 10 9 6 7 7 6 12 17 20 20 21 21 22 23 24 25
2 3 3 4 2 3 5 4 7 10 6 3 3 1 2 2 1 1 1 1 2 2 1 3 5 4 2 1 2 2 4 4 4 3 1 2 3 4 4 1 6 15 10 4 6 5 5 2 1 2 3 5 4 4 3 1 2 3 4 4 4 4 6 6 5 5 7 4 5 5 4 5 11 11 9 11 11 13 18 21 20 19 19 20 22 24 25 25
6 8 6 6 4 4 5 5 9 12 7 3 3 1 2 3 2 1 0 1 2 3 2 3 3 3 2 1 2 2 2 2 2 2 1 2 3 3 4 2 3 12 13 6 5 5 4 1 2 2 3 5 3 3 3 3 1 2 5 6 5 6 8 7 5 4 6 6 8 4 5 11 13 11 13 18 18 17 17 17 16 17 19 20 22 23 24 23
7 6 6 10 10 9 9 7 7 7 4 3 3 1 2 4 3 2 0 2 1 2 3 3 2 1 1 1 3 3 0 2 1 2 2 0 3 1 2 1 3 9 12 5 3 4 3 1 2 2 2 5 3 2 1 2 1 4 7 6 5 5 5 5 4 2 3 7 8 4 7 12 10 8 13 16 14 11 12 15 17 19 20 20 22 23 24 23
4 5 8 12 8 4 4 4 3 4 2 2 2 3 3 3 4 4 3 3 2 1 2 4 6 2 2 4 5 2 1 2 3 1 3 2 1 0 0 0 1 5 8 4 4 6 3 2 1 3 4 3 2 2 3 2 0 4 10 9 7 6 4 4 4 4 6 4 2 1 4 8 6 4 6 9 9 10 14 18 20 21 20 20 22 24 24 25
4 7 10 9 4 1 2 2 3 3 2 1 3 4 2 4 7 6 4 3 3 4 2 6 7 3 3 4 4 1 1 1 1 0 0 1 1 2 3 3 3 3 4 2 3 4 2 3 2 4 2 3 4 2 3 4 3 2 6 5 7 7 5 4 3 6 9 7 5 4 6 6 4 1 3 6 9 14 18 19 19 20 21 21 23 24 24 24
Wind_Direction
68 70 69 65 61 59 55 53 48 44 41 35 29 21 14 7 0 355 352 353 353 349 351 353 352 354 354 348 343 337 320 304 312 321 332 352 354 348 347 338 331 326 330 339 330 322 261 250 314 339 286 157 152 165 158 154 154 147 127 140 177 179 194 194 163 159 125 127 101 85 98 109 99 88 90 78 67 67 68 63 66 79 78 77 77 75 77 87
73 75 74 70 66 62 56 52 48 43 37 30 24 16 9 2 356 352 346 345 348 348 339 337 349 349 349 349 346 343 329 314 312 325 346 346 342 340 340 336 327 320 330 341 340 356 26 328 32 60 131 135 134 158 158 161 156 135 103 139 199 180 106 9 150 136 117 124 95 82 85 82 81 90 92 83 53 55 58 45 56 68 68 76 77 77 81 90
78 79 77 73 66 59 53 47 40 34 27 21 15 9 3 354 349 347 344 341 342 346 338 320 331 340 342 345 346 346 338 330 324 340 345 337 336 335 329 325 319 318 331 341 344 1 15 43 49 81 123 118 116 153 157 155 162 127 100 130 219 186 54 30 109 118 122 120 100 88 84 69 64 85 95 99 64 48 44 25 37 41 42 61 67 74 81 87
78 79 76 69 61 53 45 36 29 22 17 12 8 5 360 350 343 340 339 338 337 343 340 316 317 333 334 339 343 345 343 348 359 346 339 336 333 331 329 321 314 319 326 333 342 343 291 76 61 100 120 104 100 141 155 152 166 133 109 152 179 153 62 47 103 111 115 112 106 99 86 71 64 71 78 91 75 42 29 25 28 29 36 52 61 71 78 86
72 74 69 63 54 45 37 28 18 11 7 5 3 1 355 345 340 338 335 335 334 339 341 330 331 336 335 340 342 346 353 355 354 346 337 335 332 330 331 320 309 311 319 330 339 341 258 141 86 110 112 93 107 130 151 145 142 106 66 136 135 120 83 73 103 109 111 106 100 89 83 89 79 64 56 66 71 48 31 34 50 55 57 61 65 73 81 89
54 51 49 46 39 33 26 15 5 1 359 0 1 356 348 339 338 338 335 336 334 336 343 1 349 346 348 349 348 359 20 20 340 344 335 334 332 330 329 315 305 297 304 319 328 346 195 156 109 114 82 72 118 132 141 152 132 111 35 48 105 111 103 99 101 105 108 97 87 86 92 98 88 65 55 61 59 55 52 53 69 71 74 75 74 80 85 89
22 14 9 1 0 360 356 353 352 352 354 358 358 351 343 339 341 342 343 341 333 336 352 42 2 5 3 360 4 15 27 8 342 340 332 335 334 328 324 309 297 283 291 304 330 7 122 138 120 106 66 80 121 129 132 115 95 101 73 56 84 99 101 106 103 100 98 91 90 96 93 84 84 78 60 57 50 54 65 69 73 77 80 79 79 81 85 87
359 352 345 336 333 332 334 339 344 348 355 358 354 348 344 345 350 349 347 341 333 341 28 53 23 23 17 14 15 22 20 358 342 338 329 334 337 326 316 301 284 278 297 304 328 70 123 114 121 112 73 114 131 171 140 98 81 81 99 91 87 93 100 106 103 99 95 94 95 90 81 75 83 82 61 47 44 49 65 76 74 76 77 77 77 78 83 87
348 341 336 330 327 327 329 335 343 350 359 1 358 356 353 353 358 354 351 342 339 352 71 49 36 27 21 20 17 24 14 355 343 335 325 324 336 334 316 287 271 271 297 304 314 128 150 125 122 129 140 132 122 145 131 90 81 105 113 105 97 96 104 105 99 98 97 99 97 83 63 67 80 80 58 38 49 51 57 74 76 77 77 74 72 74 83 87
347 341 335 331 329 329 332 338 346 358 9 8 11 10 2 355 351 359 2 354 353 29 85 48 38 27 18 11 16 31 7 358 353 334 317 318 335 347 327 279 267 267 285 302 176 136 161 139 120 130 123 113 129 83 46 102 118 118 110 101 99 99 101 101 98 98 93 89 93 88 60 49 64 86 61 35 60 70 66 69 74 77 77 73 71 78 84 87
347 342 337 334 334 333 337 341 349 10 20 21 26 23 15 4 343 357 7 1 8 45 87 44 26 13 4 356 11 23 7 3 359 340 314 322 348 357 347 246 273 260 261 323 167 146 159 148 129 132 113 120 136 69 73 120 123 117 107 94 96 101 94 90 97 100 92 89 91 91 72 42 49 72 66 45 63 77 76 67 69 74 74 70 72 80 83 85
346 341 338 336 336 337 339 342 355 26 34 37 40 34 27 17 356 0 8 3 21 38 37 2 345 349 347 350 16 14 8 7 4 354 326 333 32 33 44 111 112 134 150 110 124 151 165 159 142 138 130 152 130 70 107 127 124 118 109 102 108 106 83 44 57 88 104 126 102 83 67 31 30 53 57 63 67 76 77 68 69 72 73 71 70 75 79 84
346 342 339 337 338 340 340 341 356 54 58 51 48 39 33 26 17 21 20 13 15 41 43 352 320 348 347 335 14 14 8 11 12 8 345 344 76 74 68 71 129 146 152 157 122 172 180 161 156 141 126 134 80 100 134 132 125 120 111 115 129 106 61 11 25 58 82 142 241 44 71 31 21 47 57 69 69 70 70 67 70 72 74 72 68 71 77 84
348 345 341 340 341 343 340 341 348 151 119 57 51 40 34 29 27 33 34 33 26 353 19 20 360 347 355 347 9 11 9 17 20 18 23 159 112 94 87 76 105 156 167 165 147 200 176 154 150 127 111 93 90 123 133 132 129 125 111 121 131 112 100 17 21 28 42 9 13 98 97 86 48 45 58 74 72 69 65 63 67 73 75 71 65 67 74 81
350 347 346 344 344 346 344 342 339 208 197 356 44 40 32 30 31 30 30 36 35 27 303 318 22 1 9 14 3 6 14 23 22 22 30 123 160 110 100 85 79 116 154 158 158 163 148 139 133 106 90 78 111 131 133 125 135 139 124 130 138 117 128 32 20 21 77 40 57 93 100 97 89 65 67 73 69 73 70 61 61 68 74 73 69 68 74 79
351 349 349 348 346 345 345 344 335 237 212 276 332 31 29 30 31 32 19 357 31 40 38 254 288 14 33 11 359 10 18 20 18 20 32 52 87 103 95 87 69 87 138 149 135 128 124 121 111 75 70 83 112 137 133 120 136 210 144 135 138 126 142 126 23 14 62 50 25 82 120 111 99 92 78 64 59 66 66 61 56 59 66 71 73 74 79 82
353 349 349 350 347 342 346 348 337 253 217 263 316 350 19 28 31 36 40 35 77 50 43 38 327 204 35 11 5 4 6 11 18 22 36 55 48 47 83 71 52 83 117 127 118 123 116 100 109 84 56 60 66 146 145 145 158 176 132 117 109 113 126 137 45 25 65 89 62 84 105 103 110 105 80 57 58 61 59 58 53 53 59 65 69 75 80 82
353 349 349 351 347 339 345 353 344 278 223 251 312 333 356 19 29 37 43 52 63 53 40 33 29 145 349 358 356 352 357 11 20 25 39 61 52 58 86 58 90 116 113 109 101 102 97 55 87 90 28 38 28 157 157 156 158 154 138 131 107 89 83 85 89 63 77 84 81 86 94 101 104 97 83 69 63 62 58 59 56 53 59 67 67 68 75 79
354 350 351 353 349 339 344 357 351 304 235 246 277 326 340 342 20 35 39 44 48 51 34 19 29 91 293 339 351 356 8 21 19 25 47 75 64 64 78 88 118 126 111 99 74 61 78 53 59 75 18 13 27 120 179 151 117 122 119 122 116 98 82 86 102 104 90 80 64 76 95 99 84 72 78 74 66 61 58 60 60 58 62 69 71 69 76 81
356 352 351 355 355 341 342 357 357 322 256 256 258 291 327 332 339 22 31 40 45 47 40 21 25 25 348 345 359 8 18 27 23 26 40 53 83 75 73 102 116 97 78 94 88 62 82 74 56 126 203 254 226 171 236 129 95 98 97 95 100 97 90 103 120 124 92 79 55 66 86 83 71 55 51 63 67 56 52 56 54 61 72 76 84 84 85 89
359 355 351 356 0 349 343 350 2 350 255 245 238 220 23 31 58 13 17 38 41 36 34 25 20 17 9 1 3 10 11 20 26 31 35 38 82 86 62 98 100 53 23 27 86 88 79 80 330 242 215 233 227 218 204 115 101 95 100 98 88 92 93 88 103 107 83 95 91 81 83 71 62 57 51 62 64 47 50 59 52 65 86 92 106 103 97 101
3 0 355 358 4 3 350 342 360 2 244 190 205 193 146 107 96 53 5 34 32 28 25 20 19 14 12 12 6 12 17 15 19 24 31 45 60 59 49 73 83 73 17 7 74 69 58 69 300 283 225 193 178 191 119 108 103 101 105 102 91 101 109 77 53 47 72 101 116 104 88 72 53 52 51 61 65 66 76 86 83 87 102 106 113 111 111 115
8 7 2 2 7 12 9 358 354 357 343 185 199 200 183 164 145 106 63 281 19 22 18 16 17 10 10 10 2 12 31 25 8 11 17 30 47 45 44 66 80 79 38 41 95 87 76 299 302 295 183 119 105 124 115 103 96 111 113 107 116 133 120 86 47 54 60 91 126 120 95 76 65 53 32 47 68 87 89 93 104 108 130 127 115 113 117 120
10 11 9 5 9 12 16 26 12 354 354 217 190 194 200 186 183 178 110 226 314 9 11 14 14 10 7 1 357 9 37 32 12 9 15 18 27 36 31 47 72 68 44 64 86 83 64 321 318 176 133 109 111 118 113 107 81 81 105 118 133 131 106 106 106 87 72 82 121 116 91 69 48 43 352 354 31 95 96 102 123 151 205 172 140 133 132 131
10 12 14 10 10 8 7 23 22 16 13 358 189 202 197 183 208 208 106 61 334 351 1 8 9 10 5 358 2 17 61 34 19 10 17 22 23 29 28 33 61 60 34 55 72 73 19 351 15 110 117 106 114 112 99 121 116 75 48 126 130 122 115 120 123 107 89 96 178 36 85 101 334 299 235 241 262 239 235 243 212 212 236 213 175 163 155 144
11 11 17 18 14 11 6 4 16 29 37 25 200 207 194 166 202 192 147 59 36 340 351 359 359 6 6 2 6 29 117 22 18 20 26 34 36 44 36 21 45 61 126 100 73 85 0 6 33 90 99 93 97 85 21 94 120 99 330 128 127 125 126 130 127 112 109 126 138 6 86 148 286 257 223 207 244 256 252 253 243 231 235 226 207 190 172 160
12 10 16 18 17 16 12 1 6 28 47 42 42 188 204 159 76 170 185 49 24 337 343 350 352 2 4 8 19 52 167 336 7 29 30 36 45 62 74 27 38 39 244 173 67 15 336 15 31 57 72 67 63 60 340 31 105 90 64 111 121 124 124 127 114 100 114 120 105 38 26 103 193 251 204 168 240 272 261 254 249 234 229 227 218 202 183 173
11 10 10 11 14 16 16 11 3 10 40 45 48 42 62 149 32 6 87 75 348 327 337 341 349 360 3 18 33 54 56 352 3 23 27 40 46 60 69 38 57 51 23 108 91 327 332 24 22 40 62 59 23 331 335 85 89 82 96 97 96 103 100 92 93 104 109 101 89 2 12 83 234 302 60 111 249 256 244 237 237 229 225 224 219 207 193 184
12 12 9 8 12 14 13 16 12 4 344 346 15 19 22 19 281 7 70 90 314 326 337 344 348 350 358 17 29 30 31 21 11 6 31 48 45 57 77 45 67 67 47 73 89 18 32 33 13 37 59 50 19 9 49 84 97 108 100 88 73 72 67 61 77 104 83 72 87 338 2 102 221 261 168 168 250 241 231 227 227 224 222 221 219 211 201 195
11 10 9 8 11 13 12 14 14 16 4 342 306 317 3 19 34 60 45 26 298 336 330 345 346 341 354 9 11 12 22 16 6 15 33 43 41 47 63 51 58 71 64 68 73 70 57 38 33 45 36 49 70 56 53 78 102 111 97 84 82 57 44 56 38 65 69 35 242 282 309 120 231 253 200 194 225 209 195 210 227 222 221 219 216 211 205 205
10 9 7 7 10 12 13 16 16 13 11 15 3 314 12 29 60 87 52 305 301 346 341 349 342 344 359 11 348 357 3 6 9 21 30 30 34 34 32 30 32 46 66 58 56 64 49 37 46 56 40 57 83 68 51 66 79 89 94 103 102 54 18 43 2 30 86 270 261 313 320 335 195 255 222 215 233 203 184 192 205 216 219 217 213 212 209 211
11 10 6 6 10 10 12 17 16 8 7 30 36 20 75 52 35 82 285 314 327 343 345 325 327 342 340 335 357 349 344 6 8 20 28 15 34 37 38 32 355 41 65 32 25 56 50 44 36 47 40 37 65 89 61 43 46 67 92 79 90 66 23 54 2 3 118 244 273 360 355 334 237 252 228 218 227 220 208 203 202 209 214 214 215 215 215 220
10 11 7 7 9 10 13 15 18 24 41 55 41 33 73 78 35 321 281 325 359 330 324 297 312 326 322 342 5 345 345 18 0 6 20 22 50 54 53 37 7 27 71 18 49 46 65 51 20 10 20 11 19 104 104 87 37 60 93 80 101 99 82 118 309 339 278 250 312 352 352 312 289 283 230 224 232 225 222 217 214 216 216 216 219 220 224 230
10 12 9 10 9 12 18 20 26 33 49 68 48 45 62 70 289 326 321 282 280 319 322 307 313 324 348 21 348 333 1 27 359 9 13 23 39 19 11 21 13 10 68 63 55 38 77 56 12 8 353 355 13 60 77 113 77 27 163 113 114 135 133 164 196 172 218 266 336 338 328 205 264 275 228 244 257 238 233 233 227 226 224 223 225 228 231 235
14 13 14 15 13 21 28 33 37 38 67 87 72 60 70 75 249 317 310 259 279 318 304 312 335 349 3 357 324 355 23 2 359 23 26 31 46 16 345 350 2 8 35 52 34 33 65 46 334 358 356 357 18 18 21 82 84 58 91 73 64 163 138 130 165 164 168 162 3 293 244 216 230 267 279 285 276 237 234 238 237 235 230 228 232 234 236 239
17 17 23 21 23 34 40 48 52 53 84 87 72 50 92 173 235 153 287 294 343 313 312 333 16 27 359 337 332 357 6 8 12 20 24 37 48 24 0 311 356 21 31 55 64 131 76 63 308 343 23 40 31 32 59 58 185 122 62 73 113 128 115 111 118 69 83 118 173 291 273 291 303 299 321 346 290 253 240 234 236 236 232 232 236 237 239 242
15 21 24 25 33 42 56 66 64 60 74 77 70 69 142 218 209 179 304 337 301 293 356 16 15 31 4 340 335 343 350 3 19 23 21 27 26 10 358 313 2 33 18 358 81 74 106 125 319 358 49 1 10 35 48 36 51 109 115 157 154 91 96 105 103 23 40 120 276 319 272 295 322 297 326 351 267 263 251 230 232 234 233 235 237 238 241 245
19 22 21 22 31 39 55 67 45 45 68 71 73 123 142 238 245 233 294 334 288 310 45 54 3 50 62 359 334 333 347 357 4 28 35 18 19 8 2 334 335 12 4 355 47 7 84 103 313 334 151 324 356 43 13 10 31 73 124 143 115 102 82 46 89 106 75 99 291 304 282 259 217 224 276 241 223 232 233 228 229 232 232 234 237 240 243 247
10 14 19 17 22 43 52 53 78 85 74 71 85 113 164 247 281 273 307 335 265 353 42 35 359 37 54 73 316 317 350 11 354 28 61 24 22 19 17 1 313 342 354 15 103 285 77 101 318 295 265 305 0 48 21 337 4 40 72 44 24 114 133 75 90 133 123 127 255 319 336 275 231 216 217 222 223 221 218 219 226 231 232 234 238 243 247 250
2 9 16 12 12 43 54 61 73 72 69 85 154 134 209 247 287 307 354 354 332 41 38 2 26 36 17 36 148 320 358 26 2 27 58 20 5 9 15 16 326 326 340 7 98 273 304 94 111 299 342 29 25 36 96 252 330 1 28 19 7 36 82 94 65 65 98 125 173 20 356 278 251 210 210 239 252 238 224 225 234 236 236 238 242 246 252 256
17 26 9 12 20 34 58 62 55 57 67 140 104 109 221 310 316 353 20 33 50 53 90 111 69 77 42 7 9 336 355 26 23 44 52 18 30 29 355 358 340 317 332 1 38 21 358 78 105 327 4 48 6 313 165 169 185 133 58 68 115 53 103 93 38 347 78 103 160 130 330 273 261 200 216 245 255 254 248 239 242 247 246 247 250 253 257 260
54 55 3 11 24 37 66 62 42 45 94 87 75 126 115 355 338 10 26 68 63 34 70 94 74 81 96 348 344 352 24 31 19 30 41 352 13 123 325 345 343 322 347 21 332 344 58 94 82 56 350 188 272 325 62 138 170 129 75 94 113 56 92 107 110 263 74 64 151 117 23 272 261 215 230 257 267 268 261 243 246 255 258 258 261 263 263 264
63 53 8 10 37 68 76 69 23 25 71 85 121 114 94 294 16 16 18 34 22 4 49 60 49 59 46 309 28 33 33 41 28 25 24 288 303 270 325 351 359 356 20 40 306 342 48 80 67 357 302 315 331 347 27 36 68 94 38 46 84 27 58 129 165 158 112 148 198 65 351 275 270 260 262 271 282 285 273 252 253 262 268 268 269 270 270 270
68 53 31 22 13 77 81 105 113 75 97 100 65 55 56 48 32 18 6 17 10 31 73 44 358 53 27 119 92 21 351 64 49 13 9 276 313 317 340 1 15 23 31 33 316 334 5 70 78 51 359 351 352 348 348 351 18 92 344 354 48 63 68 103 137 77 82 183 154 107 250 260 264 305 304 290 296 296 285 270 264 269 276 278 276 276 275 275
77 57 40 37 48 92 95 125 137 129 146 109 76 38 38 52 35 31 40 37 31 46 81 41 2 44 58 69 57 5 348 70 62 9 13 354 298 319 348 3 14 19 23 342 320 340 70 90 89 95 95 57 344 295 292 300 314 356 341 353 46 73 71 63 103 69 46 203 153 156 216 265 288 315 330 326 332 317 305 308 292 284 291 294 291 289 283 280
96 74 33 39 55 76 86 102 115 116 146 138 92 37 69 81 35 39 47 43 37 42 61 61 340 340 43 50 46 11 357 12 58 77 30 330 276 314 343 355 13 14 8 344 355 53 107 71 87 130 152 176 189 214 234 242 198 273 304 311 16 108 100 90 88 90 197 174 200 220 210 288 299 298 315 318 327 315 303 313 311 304 305 303 299 296 290 286
96 85 3 44 54 68 77 83 93 106 142 149 116 114 119 95 340 38 46 39 49 46 55 51 32 30 35 39 53 22 351 357 30 60 28 299 265 304 321 339 19 15 16 7 8 70 109 43 59 144 191 209 200 218 255 3 201 206 204 215 212 167 126 111 141 220 163 122 284 254 191 236 277 279 290 295 301 298 295 303 307 309 310 307 303 300 293 287
95 110 103 115 111 76 72 75 99 103 104 114 117 123 102 82 73 104 82 65 74 47 44 44 27 23 10 14 90 52 353 1 19 15 332 312 306 323 327 301 20 18 26 31 15 68 110 66 130 179 266 256 238 249 242 218 233 210 198 213 208 172 164 178 214 202 164 174 244 229 168 237 267 281 289 285 289 293 294 299 304 309 315 315 314 311 306 299
111 114 101 103 115 114 112 123 118 103 87 81 98 101 133 132 141 174 282 31 38 7 40 78 14 349 335 334 109 97 4 26 28 325 282 335 324 339 359 310 339 11 22 31 19 48 99 126 185 177 309 301 282 271 217 187 245 270 230 221 208 195 195 204 227 206 185 233 262 270 282 275 270 271 276 285 294 295 296 302 305 310 317 319 318 317 318 317
132 128 121 109 96 91 104 120 116 95 60 49 80 104 155 142 156 191 42 51 77 335 12 101 158 216 337 19 88 100 173 149 124 266 206 141 329 327 31 284 281 353 8 23 354 3 58 87 185 148 345 319 325 17 63 134 201 279 270 245 206 204 221 227 237 208 199 263 280 293 289 281 273 255 264 283 299 300 298 302 303 308 313 313 311 310 310 310
150 143 141 123 96 66 103 114 94 88 53 18 117 166 178 176 175 152 79 36 86 52 1 142 153 140 35 36 57 67 287 137 126 181 176 149 341 305 49 270 245 335 352 16 354 350 48 85 12 65 43 309 291 38 350 336 334 281 285 266 214 195 209 215 213 197 189 208 233 221 270 266 256 248 265 281 296 296 292 294 299 305 310 307 304 304 305 304
153 144 150 133 89 44 158 116 48 94 136 221 149 158 171 174 167 142 87 32 68 71 83 146 144 112 46 39 41 55 27 50 90 357 148 175 150 94 73 64 70 25 347 13 20 358 54 98 48 46 49 271 279 311 302 338 23 300 279 244 189 185 203 218 241 228 204 173 153 198 233 234 227 279 307 295 294 293 292 294 299 304 308 308 304 304 308 310